20040324,000015,86405,32.879880,-117.379950,NaN,16.839,33.070,42.526,239.32,0.0, NaN,16.101,16.069, NaN,24.071,   NaN,14.71,1013.00,90.47,14.58,35.7,32.7,6.5,6.9,179.4,175.5,5.6,5.9,NaN, NaN,NaN,101.0,NaN,1080086417,NaN,NaN,3.3,000016,   NaN,134.0,32.879980,-117.380020,-0.60,NaN,NaN,16.843, NaN,NaN,NaN, NaN, NaN
20040324,000045,86435,32.879630,-117.379590,NaN,16.836,33.069,42.522,242.62,0.0, NaN,16.098,16.063, NaN,24.071,   NaN,14.71,1013.00,90.39,14.60,37.7,36.6,6.6,6.8,181.4,179.5,5.6,5.8,NaN, NaN,NaN,111.7,NaN,1080086447,NaN,NaN,3.0,000046,   NaN,135.8,32.879740,-117.379660,-0.51,NaN,NaN,16.840, NaN,NaN,NaN, NaN, NaN
20040324,000115,86464,32.879360,-117.379240,NaN,16.833,33.070,42.520,243.64,0.0, NaN,16.096,16.061, NaN,24.073,   NaN,14.70,1013.01,90.39,14.59,37.9,38.4,6.5,6.6,183.6,183.7,5.5,5.6,NaN, NaN,NaN,141.1,NaN,1080086477,NaN,NaN,2.8,000076,   NaN,137.1,32.879470,-117.379310,-0.49,NaN,NaN,16.837, NaN,NaN,NaN, NaN, NaN
20040324,000145,86495,32.879130,-117.378910,NaN,16.830,33.070,42.518,241.16,0.0, NaN,16.092,16.057, NaN,24.073,   NaN,14.74,1013.00,90.62,14.62,38.1,38.1,6.3,6.6,185.4,184.9,5.4,5.6,NaN, NaN,NaN,117.9,NaN,1080086507,NaN,NaN,2.7,000106,   NaN,137.3,32.879230,-117.378990,-0.53,NaN,NaN,16.834, NaN,NaN,NaN, NaN, NaN
20040324,000215,86525,32.878890,-117.378630,NaN,16.830,33.070,42.517,238.09,0.0, NaN,16.089,16.051, NaN,24.073,   NaN,14.77,1013.00,90.84,14.66,36.3,35.8,6.2,6.4,183.1,181.9,5.3,5.5,NaN, NaN,NaN,114.1,NaN,1080086537,NaN,NaN,2.7,000136,   NaN,136.1,32.879000,-117.378700,-0.50,NaN,NaN,16.834, NaN,NaN,NaN, NaN, NaN
20040324,000245,86555,32.878690,-117.378340,NaN,16.826,33.072,42.516,236.23,0.0, NaN,16.088,16.047, NaN,24.075,   NaN,14.73,1012.98,90.45,14.63,36.1,34.2,6.5,6.6,180.3,178.0,5.7,5.7,NaN, NaN,NaN,117.2,NaN,1080086567,NaN,NaN,2.5,000166,   NaN,134.6,32.878790,-117.378410,-0.47,NaN,NaN,16.830, NaN,NaN,NaN, NaN, NaN
20040324,000315,86585,32.878490,-117.378050,NaN,16.822,33.073,42.513,234.35,0.0, NaN,16.086,16.046, NaN,24.077,   NaN,14.68,1013.02,90.12,14.58,38.3,36.7,6.6,6.7,181.7,179.6,5.8,5.9,NaN, NaN,NaN,157.3,NaN,1080086597,NaN,NaN,2.4,000196,   NaN,136.7,32.878600,-117.378120,-0.45,NaN,NaN,16.826, NaN,NaN,NaN, NaN, NaN
20040324,000345,86615,32.878310,-117.377800,NaN,16.820,33.072,42.510,230.45,0.0, NaN,16.086,16.045, NaN,24.077,   NaN,14.66,1013.04,90.10,14.56,39.3,38.1,5.9,6.3,184.2,182.3,5.2,5.5,NaN, NaN,NaN,116.4,NaN,1080086627,NaN,NaN,2.1,000226,   NaN,138.5,32.878420,-117.377860,-0.54,NaN,NaN,16.824, NaN,NaN,NaN, NaN, NaN
20040324,000415,86645,32.878160,-117.377590,NaN,16.817,33.071,42.506,226.81,0.0, NaN,16.081,16.044, NaN,24.077,   NaN,14.69,1013.05,90.41,14.59,38.2,37.8,5.5,5.7,184.9,183.9,4.9,5.1,NaN, NaN,NaN,125.5,NaN,1080086657,NaN,NaN,1.7,000256,   NaN,140.7,32.878270,-117.377650,-0.61,NaN,NaN,16.821, NaN,NaN,NaN, NaN, NaN
20040324,000445,86675,32.878030,-117.377420,NaN,16.818,33.071,42.507,225.09,0.0, NaN,16.077,16.039, NaN,24.077,   NaN,14.73,1013.04,90.70,14.62,34.6,34.1,5.7,5.8,181.7,180.8,5.1,5.3,NaN, NaN,NaN,150.9,NaN,1080086687,NaN,NaN,1.6,000286,   NaN,141.8,32.878150,-117.377470,-0.61,NaN,NaN,16.822, NaN,NaN,NaN, NaN, NaN
20040324,000515,86705,32.877910,-117.377230,NaN,16.816,33.073,42.507,225.49,0.0, NaN,16.073,16.037, NaN,24.078,   NaN,14.69,1013.06,90.38,14.61,31.7,30.4,5.9,6.2,179.0,177.0,5.4,5.8,NaN, NaN,NaN,193.1,NaN,1080086717,NaN,NaN,1.9,000316,   NaN,141.3,32.878030,-117.377290,-0.55,NaN,NaN,16.820, NaN,NaN,NaN, NaN, NaN
20040324,000545,86735,32.877810,-117.377050,NaN,16.812,33.072,42.503,226.11,0.0, NaN,16.071,16.033, NaN,24.079,   NaN,14.69,1013.03,90.53,14.62,32.6,30.6,5.9,6.1,179.9,177.2,5.5,5.7,NaN, NaN,NaN,149.6,NaN,1080086747,NaN,NaN,1.4,000346,   NaN,140.4,32.877920,-117.377110,-0.66,NaN,NaN,16.816, NaN,NaN,NaN, NaN, NaN
20040324,000615,86765,32.877700,-117.376900,NaN,16.808,33.073,42.500,226.70,0.0, NaN,16.069,16.032, NaN,24.081,   NaN,14.74,1013.03,90.86,14.64,31.9,29.5,5.9,6.2,177.4,174.3,5.5,5.8,NaN, NaN,NaN,83.5,NaN,1080086777,NaN,NaN,2.0,000376,   NaN,138.1,32.877810,-117.376950,-0.64,NaN,NaN,16.812, NaN,NaN,NaN, NaN, NaN
20040324,000645,86794,32.877600,-117.376730,NaN,16.804,33.073,42.496,226.72,0.0, NaN,16.068,16.030, NaN,24.081,   NaN,14.73,1012.98,90.78,14.64,32.5,30.0,6.1,6.4,175.0,172.0,5.7,6.0,NaN, NaN,NaN,150.4,NaN,1080086807,NaN,NaN,1.3,000406,   NaN,133.8,32.877710,-117.376810,-0.63,NaN,NaN,16.808, NaN,NaN,NaN, NaN, NaN
20040324,000715,86825,32.877540,-117.376580,NaN,16.801,33.073,42.494,224.49,0.0, NaN,16.064,16.025, NaN,24.082,   NaN,14.70,1013.01,90.54,14.63,36.5,34.5,5.9,6.3,175.4,173.0,5.6,6.0,NaN, NaN,NaN,124.3,NaN,1080086837,NaN,NaN,1.3,000436,   NaN,129.8,32.877640,-117.376670,-0.62,NaN,NaN,16.805, NaN,NaN,NaN, NaN, NaN
20040324,000745,86855,32.877480,-117.376440,NaN,16.798,33.073,42.490,221.08,0.0, NaN,16.061,16.021, NaN,24.083,   NaN,14.72,1013.00,90.75,14.63,38.9,37.4,5.6,6.0,174.8,172.8,5.4,5.7,NaN, NaN,NaN,134.2,NaN,1080086867,NaN,NaN,0.9,000466,   NaN,128.9,32.877580,-117.376520,-0.70,NaN,NaN,16.802, NaN,NaN,NaN, NaN, NaN
20040324,000815,86885,32.877430,-117.376290,NaN,16.795,33.073,42.488,217.59,0.0, NaN,16.057,16.019, NaN,24.083,   NaN,14.71,1013.00,90.69,14.61,40.0,38.9,5.5,5.6,173.8,172.6,5.3,5.4,NaN, NaN,NaN,83.1,NaN,1080086897,NaN,NaN,1.8,000496,   NaN,128.5,32.877530,-117.376380,-0.59,NaN,NaN,16.799, NaN,NaN,NaN, NaN, NaN
20040324,000845,86915,32.877380,-117.376150,NaN,16.791,33.073,42.484,215.37,0.0, NaN,16.053,16.015, NaN,24.084,   NaN,14.70,1012.99,90.63,14.61,42.9,42.7,5.4,5.3,175.6,175.4,5.2,5.1,NaN, NaN,NaN,58.3,NaN,1080086927,NaN,NaN,2.1,000526,   NaN,127.5,32.877490,-117.376240,-0.70,NaN,NaN,16.795, NaN,NaN,NaN, NaN, NaN
20040324,000915,86945,32.877340,-117.375990,NaN,16.788,33.073,42.480,213.83,0.0, NaN,16.050,16.014, NaN,24.085,   NaN,14.71,1013.02,90.91,14.63,41.9,42.1,5.3,5.2,174.8,174.9,5.1,5.0,NaN, NaN,NaN,116.0,NaN,1080086957,NaN,NaN,0.8,000556,   NaN,130.8,32.877450,-117.376080,-0.63,NaN,NaN,16.792, NaN,NaN,NaN, NaN, NaN
20040324,000945,86974,32.877270,-117.375820,NaN,16.784,33.072,42.477,212.56,0.0, NaN,16.049,16.010, NaN,24.085,   NaN,14.77,1012.99,91.29,14.66,41.6,41.3,5.2,5.1,177.4,177.2,5.0,4.9,NaN, NaN,NaN,125.4,NaN,1080086987,NaN,NaN,1.7,000586,   NaN,134.6,32.877380,-117.375890,-0.65,NaN,NaN,16.788, NaN,NaN,NaN, NaN, NaN
20040324,001015,87005,32.877180,-117.375660,NaN,16.781,33.071,42.472,211.06,0.0, NaN,16.044,16.008, NaN,24.085,   NaN,14.77,1013.02,91.24,14.66,40.4,40.0,5.4,5.2,180.7,180.6,5.1,4.9,NaN, NaN,NaN,85.1,NaN,1080087017,NaN,NaN,2.3,000616,   NaN,138.9,32.877300,-117.375710,-0.74,NaN,NaN,16.785, NaN,NaN,NaN, NaN, NaN
20040324,001045,87035,32.877070,-117.375470,NaN,16.778,33.069,42.467,210.30,0.0, NaN,16.044,16.006, NaN,24.085,   NaN,14.79,1013.02,91.29,14.67,37.6,36.1,5.4,5.6,181.2,179.2,5.1,5.3,NaN, NaN,NaN,181.5,NaN,1080087047,NaN,NaN,2.3,000646,   NaN,138.1,32.877190,-117.375530,-0.54,NaN,NaN,16.782, NaN,NaN,NaN, NaN, NaN
20040324,001115,87065,32.876970,-117.375270,NaN,16.776,33.068,42.463,210.30,0.0, NaN,16.043,16.004, NaN,24.084,   NaN,14.79,1013.00,91.15,14.67,37.1,34.4,5.5,6.0,181.4,177.7,5.2,5.6,NaN, NaN,NaN,169.2,NaN,1080087077,NaN,NaN,1.7,000676,   NaN,136.3,32.877070,-117.375340,-0.59,NaN,NaN,16.780, NaN,NaN,NaN, NaN, NaN
20040324,001145,87095,32.876850,-117.375070,NaN,16.776,33.068,42.464,210.68,0.0, NaN,16.041,16.002, NaN,24.084,   NaN,14.74,1013.01,90.77,14.65,37.8,36.7,5.9,6.1,180.7,179.0,5.4,5.7,NaN, NaN,NaN,114.9,NaN,1080087107,NaN,NaN,1.6,000706,   NaN,135.0,32.876970,-117.375140,-0.57,NaN,NaN,16.780, NaN,NaN,NaN, NaN, NaN
20040324,001215,87125,32.876730,-117.374870,NaN,16.773,33.070,42.463,210.45,0.0, NaN,16.037,15.996, NaN,24.086,   NaN,14.73,1013.02,90.82,14.65,37.8,37.5,6.1,6.3,179.0,178.4,5.6,5.8,NaN, NaN,NaN,148.5,NaN,1080087137,NaN,NaN,1.9,000736,   NaN,134.8,32.876840,-117.374940,-0.49,NaN,NaN,16.777, NaN,NaN,NaN, NaN, NaN
20040324,001245,87155,32.876610,-117.374650,NaN,16.773,33.070,42.463,210.84,0.0, NaN,16.036,15.995, NaN,24.086,   NaN,14.71,1013.05,90.71,14.63,36.0,35.8,6.0,6.4,177.3,176.5,5.5,5.9,NaN, NaN,NaN,115.9,NaN,1080087167,NaN,NaN,1.7,000766,   NaN,137.1,32.876720,-117.374710,-0.64,NaN,NaN,16.777, NaN,NaN,NaN, NaN, NaN
20040324,001315,87185,32.876490,-117.374460,NaN,16.769,33.071,42.460,209.35,0.0, NaN,16.033,15.994, NaN,24.088,   NaN,14.70,1013.05,90.78,14.63,34.0,32.8,6.1,6.3,176.9,175.2,5.6,5.8,NaN, NaN,NaN,135.0,NaN,1080087197,NaN,NaN,1.9,000796,   NaN,139.7,32.876610,-117.374520,-0.64,NaN,NaN,16.773, NaN,NaN,NaN, NaN, NaN
20040324,001345,87215,32.876380,-117.374270,NaN,16.768,33.071,42.460,206.84,0.0, NaN,16.030,15.990, NaN,24.088,   NaN,14.71,1013.08,90.84,14.63,29.6,27.4,6.1,6.4,174.5,171.7,5.6,5.9,NaN, NaN,NaN,91.6,NaN,1080087227,NaN,NaN,0.9,000826,   NaN,141.3,32.876500,-117.374330,-0.51,NaN,NaN,16.772, NaN,NaN,NaN, NaN, NaN
20040324,001415,87245,32.876270,-117.374110,NaN,16.767,33.071,42.458,204.06,0.0, NaN,16.026,15.988, NaN,24.088,   NaN,14.73,1013.10,91.08,14.65,27.3,25.6,6.1,6.5,172.7,170.5,5.6,6.0,NaN, NaN,NaN,81.4,NaN,1080087257,NaN,NaN,1.8,000856,   NaN,140.8,32.876380,-117.374170,-0.59,NaN,NaN,16.771, NaN,NaN,NaN, NaN, NaN
20040324,001445,87275,32.876170,-117.373940,NaN,16.764,33.068,42.452,200.63,0.0, NaN,16.025,15.986, NaN,24.087,   NaN,14.71,1013.07,90.85,14.62,27.1,25.2,6.1,6.5,171.9,169.4,5.6,6.0,NaN, NaN,NaN,94.0,NaN,1080087287,NaN,NaN,1.6,000886,   NaN,139.5,32.876270,-117.374010,-0.52,NaN,NaN,16.768, NaN,NaN,NaN, NaN, NaN
20040324,001515,87304,32.876060,-117.373780,NaN,16.762,33.068,42.450,197.68,0.0, NaN,16.024,15.986, NaN,24.087,   NaN,14.72,1013.10,90.99,14.63,27.8,25.7,6.0,6.4,170.9,168.1,5.5,6.0,NaN, NaN,NaN,67.3,NaN,1080087317,NaN,NaN,3.1,000916,   NaN,137.3,32.876170,-117.373860,-0.62,NaN,NaN,16.766, NaN,NaN,NaN, NaN, NaN
20040324,001545,87335,32.875960,-117.373640,NaN,16.760,33.068,42.448,195.94,0.0, NaN,16.019,15.983, NaN,24.088,   NaN,14.71,1013.07,90.83,14.61,28.9,27.2,6.0,6.3,169.3,167.0,5.5,5.9,NaN, NaN,NaN,119.1,NaN,1080087347,NaN,NaN,1.3,000946,   NaN,133.5,32.876060,-117.373710,-0.51,NaN,NaN,16.764, NaN,NaN,NaN, NaN, NaN
20040324,001615,87365,32.875870,-117.373440,NaN,16.758,33.070,42.449,194.94,0.0, NaN,16.018,15.981, NaN,24.090,   NaN,14.74,1013.04,91.08,14.64,31.3,29.4,6.1,6.4,169.3,166.9,5.7,5.9,NaN, NaN,NaN,160.8,NaN,1080087377,NaN,NaN,1.2,000976,   NaN,131.0,32.875970,-117.373530,-0.52,NaN,NaN,16.762, NaN,NaN,NaN, NaN, NaN
20040324,001645,87395,32.875770,-117.373250,NaN,16.756,33.070,42.447,195.04,0.0, NaN,16.017,15.980, NaN,24.090,   NaN,14.75,1013.09,91.10,14.65,33.2,31.4,6.0,6.1,169.6,167.4,5.5,5.6,NaN, NaN,NaN,92.1,NaN,1080087407,NaN,NaN,1.4,001006,   NaN,130.7,32.875860,-117.373340,-0.52,NaN,NaN,16.760, NaN,NaN,NaN, NaN, NaN
20040324,001715,87425,32.875660,-117.373050,NaN,16.753,33.069,42.443,194.85,0.0, NaN,16.014,15.980, NaN,24.091,   NaN,14.75,1013.06,91.02,14.66,32.8,31.8,5.9,6.1,168.6,167.3,5.4,5.6,NaN, NaN,NaN,85.8,NaN,1080087437,NaN,NaN,1.9,001036,   NaN,132.5,32.875760,-117.373130,-0.50,NaN,NaN,16.757, NaN,NaN,NaN, NaN, NaN
20040324,001745,87455,32.875550,-117.372840,NaN,16.752,33.069,42.442,194.78,0.0, NaN,16.010,15.975, NaN,24.091,   NaN,14.76,1013.00,91.07,14.66,31.8,30.2,6.1,6.2,168.6,166.6,5.6,5.7,NaN, NaN,NaN,87.6,NaN,1080087467,NaN,NaN,2.5,001066,   NaN,135.4,32.875650,-117.372910,-0.54,NaN,NaN,16.756, NaN,NaN,NaN, NaN, NaN
20040324,001815,87484,32.875420,-117.372650,NaN,16.749,33.068,42.438,194.01,0.0, NaN,16.009,15.971, NaN,24.090,   NaN,14.76,1013.02,91.02,14.66,30.4,28.5,6.2,6.4,169.9,167.5,5.6,5.8,NaN, NaN,NaN,93.0,NaN,1080087497,NaN,NaN,2.4,001096,   NaN,138.8,32.875530,-117.372710,-0.60,NaN,NaN,16.753, NaN,NaN,NaN, NaN, NaN
20040324,001845,87515,32.875280,-117.372480,NaN,16.748,33.069,42.438,193.10,0.0, NaN,16.009,15.971, NaN,24.091,   NaN,14.75,1013.01,90.98,14.67,28.9,26.2,6.1,6.5,172.0,168.3,5.6,6.0,NaN, NaN,NaN,122.8,NaN,1080087527,NaN,NaN,1.3,001126,   NaN,142.0,32.875400,-117.372520,-0.45,NaN,NaN,16.752, NaN,NaN,NaN, NaN, NaN
20040324,001915,87545,32.875160,-117.372280,NaN,16.746,33.066,42.434,192.22,0.0, NaN,16.008,15.969, NaN,24.090,   NaN,14.78,1013.03,90.99,14.67,24.9,22.6,6.2,6.8,171.4,168.3,5.7,6.2,NaN, NaN,NaN,137.4,NaN,1080087557,NaN,NaN,1.4,001156,   NaN,147.8,32.875280,-117.372330,-0.41,NaN,NaN,16.750, NaN,NaN,NaN, NaN, NaN
20040324,001945,87575,32.875010,-117.372130,NaN,16.744,33.067,42.433,188.93,0.0, NaN,16.003,15.967, NaN,24.091,   NaN,14.76,1012.99,90.80,14.65,18.7,17.5,6.3,6.9,169.6,167.7,5.7,6.3,NaN, NaN,NaN,129.4,NaN,1080087587,NaN,NaN,1.5,001186,   NaN,152.1,32.875140,-117.372160,-0.50,NaN,NaN,16.748, NaN,NaN,NaN, NaN, NaN
20040324,002015,87605,32.874850,-117.371950,NaN,16.742,33.068,42.431,183.78,0.0, NaN,16.001,15.966, NaN,24.092,   NaN,14.81,1013.01,91.15,14.69,13.0,13.1,6.3,6.7,167.9,167.5,5.6,6.1,NaN, NaN,NaN,188.0,NaN,1080087617,NaN,NaN,2.1,001216,   NaN,153.1,32.874970,-117.372000,-0.33,NaN,NaN,16.746, NaN,NaN,NaN, NaN, NaN
20040324,002045,87635,32.874660,-117.371790,NaN,16.740,33.068,42.431,184.48,0.0, NaN,16.002,15.964, NaN,24.093,   NaN,14.75,1012.97,90.63,14.64,10.8,10.9,6.3,6.7,166.5,165.9,5.6,6.0,NaN, NaN,NaN,100.6,NaN,1080087647,NaN,NaN,3.0,001246,   NaN,153.1,32.874790,-117.371820,-0.18,NaN,NaN,16.744, NaN,NaN,NaN, NaN, NaN
20040324,002115,87665,32.874470,-117.371660,NaN,16.737,33.069,42.428,184.97,0.0, NaN,16.000,15.963, NaN,24.094,   NaN,14.74,1012.97,90.74,14.63,6.3,8.2,6.1,6.8,163.7,165.0,5.4,6.1,NaN, NaN,NaN,158.9,NaN,1080087677,NaN,NaN,1.6,001276,   NaN,162.8,32.874600,-117.371660,-0.42,NaN,NaN,16.741, NaN,NaN,NaN, NaN, NaN
20040324,002145,87695,32.874280,-117.371540,NaN,16.737,33.069,42.427,180.46,0.0, NaN,15.994,15.957, NaN,24.094,   NaN,14.76,1012.97,90.90,14.67,356.8,358.9,5.7,6.6,161.4,163.0,5.0,5.8,NaN, NaN,NaN,113.0,NaN,1080087707,NaN,NaN,2.6,001306,   NaN,178.7,32.874390,-117.371500,-0.44,NaN,NaN,16.741, NaN,NaN,NaN, NaN, NaN
20040324,002215,87725,32.874070,-117.371480,NaN,16.734,33.069,42.425,181.22,0.0, NaN,15.993,15.955, NaN,24.095,   NaN,14.75,1012.95,90.69,14.63,340.0,342.4,5.7,6.3,158.5,160.0,4.9,5.6,NaN, NaN,NaN,204.4,NaN,1080087737,NaN,NaN,1.2,001336,   NaN,198.6,32.874180,-117.371400,-0.26,NaN,NaN,16.738, NaN,NaN,NaN, NaN, NaN
20040324,002245,87755,32.873870,-117.371520,NaN,16.732,33.066,42.420,183.31,0.0, NaN,15.990,15.954, NaN,24.093,   NaN,14.73,1012.92,90.62,14.62,324.3,323.6,6.1,6.3,158.8,158.2,5.3,5.7,NaN, NaN,NaN,166.3,NaN,1080087767,NaN,NaN,1.9,001366,   NaN,220.5,32.873950,-117.371390,-0.18,NaN,NaN,16.736, NaN,NaN,NaN, NaN, NaN
20040324,002315,87785,32.873740,-117.371650,NaN,16.729,33.066,42.418,180.23,0.0, NaN,15.989,15.953, NaN,24.094,   NaN,14.75,1012.92,90.82,14.64,307.4,304.2,5.9,6.6,160.1,157.5,5.4,6.1,NaN, NaN,NaN,256.3,NaN,1080087797,NaN,NaN,1.1,001396,   NaN,239.1,32.873770,-117.371500,0.05,NaN,NaN,16.733, NaN,NaN,NaN, NaN, NaN
20040324,002345,87814,32.873620,-117.371810,NaN,16.727,33.067,42.416,175.06,0.0, NaN,15.987,15.952, NaN,24.095,   NaN,14.77,1012.92,90.86,14.68,289.1,284.2,4.5,6.3,154.7,155.1,4.3,6.0,NaN, NaN,NaN,310.5,NaN,1080087827,NaN,NaN,1.7,001426,   NaN,256.1,32.873620,-117.371650,0.15,NaN,NaN,16.731, NaN,NaN,NaN, NaN, NaN
20040324,002415,87845,32.873560,-117.372010,NaN,16.725,33.068,42.416,170.32,0.0, NaN,15.988,15.952, NaN,24.096,   NaN,14.76,1012.95,90.76,14.66,289.8,267.9,2.0,5.7,116.3,153.0,2.2,5.7,NaN, NaN,NaN,277.8,NaN,1080087857,NaN,NaN,1.5,001456,   NaN,259.8,32.873550,-117.371860,0.24,NaN,NaN,16.729, NaN,NaN,NaN, NaN, NaN
20040324,002445,87875,32.873520,-117.372220,NaN,16.722,33.068,42.412,165.05,0.0, NaN,15.990,15.954, NaN,24.096,   NaN,14.78,1012.98,90.84,14.67,2.2,258.9,0.4,5.3,81.0,150.3,0.9,5.4,NaN, NaN,NaN,309.4,NaN,1080087887,NaN,NaN,1.5,001486,   NaN,256.6,32.873520,-117.372060,0.36,NaN,NaN,16.726, NaN,NaN,NaN, NaN, NaN
20040324,002515,87905,32.873490,-117.372380,NaN,16.722,33.068,42.413,160.02,0.0, NaN,15.994,15.957, NaN,24.097,   NaN,14.83,1013.00,91.09,14.70,94.2,260.7,0.8,5.3,82.7,151.5,1.1,5.5,NaN, NaN,NaN,272.3,NaN,1080087917,NaN,NaN,1.4,001516,   NaN,252.6,32.873500,-117.372220,0.33,NaN,NaN,16.726, NaN,NaN,NaN, NaN, NaN
20040324,002545,87935,32.873430,-117.372600,NaN,16.724,33.069,42.416,154.93,0.0, NaN,16.000,15.964, NaN,24.097,   NaN,14.87,1013.04,91.28,14.73,300.9,270.6,2.0,5.4,151.4,157.6,2.0,5.5,NaN, NaN,NaN,236.0,NaN,1080087947,NaN,NaN,2.1,001546,   NaN,253.2,32.873440,-117.372450,0.36,NaN,NaN,16.728, NaN,NaN,NaN, NaN, NaN
20040324,002615,87965,32.873340,-117.372990,NaN,16.730,33.067,42.418,150.99,0.0, NaN,16.003,15.967, NaN,24.094,   NaN,14.87,1013.05,91.12,14.75,290.0,278.4,3.7,5.7,168.9,162.7,3.5,5.7,NaN, NaN,NaN,256.1,NaN,1080087977,NaN,NaN,3.4,001576,   NaN,259.0,32.873330,-117.372840,0.36,NaN,NaN,16.734, NaN,NaN,NaN, NaN, NaN
20040324,002645,87995,32.873240,-117.373640,NaN,16.734,33.068,42.425,145.72,0.0, NaN,16.008,15.972, NaN,24.094,   NaN,14.83,1013.06,90.69,14.74,288.1,280.8,4.4,6.0,164.6,163.3,4.1,5.9,NaN, NaN,NaN,264.2,NaN,1080088007,NaN,NaN,4.6,001606,   NaN,261.1,32.873220,-117.373500,0.37,NaN,NaN,16.738, NaN,NaN,NaN, NaN, NaN
20040324,002715,88025,32.873090,-117.374530,NaN,16.741,33.068,42.431,139.12,0.0, NaN,16.015,15.979, NaN,24.093,   NaN,14.85,1013.06,90.92,14.75,293.1,284.3,4.8,6.2,164.1,162.2,4.3,6.0,NaN, NaN,NaN,267.5,NaN,1080088037,NaN,NaN,5.2,001636,   NaN,259.8,32.873070,-117.374390,0.35,NaN,NaN,16.745, NaN,NaN,NaN, NaN, NaN
20040324,002746,88055,32.872910,-117.375560,NaN,16.746,33.069,42.436,132.01,0.0, NaN,16.025,15.989, NaN,24.092,   NaN,14.84,1013.09,90.76,14.76,298.1,290.0,5.6,6.6,165.7,163.3,4.8,6.2,NaN, NaN,NaN,259.2,NaN,1080088068,NaN,NaN,7.4,001666,   NaN,260.1,32.872890,-117.375430,0.41,NaN,NaN,16.750, NaN,NaN,NaN, NaN, NaN
20040324,002816,88086,32.872700,-117.376650,NaN,16.749,33.068,42.438,126.30,0.0, NaN,16.039,16.002, NaN,24.090,   NaN,14.84,1013.06,90.69,14.76,298.6,291.2,6.0,7.1,164.3,162.8,5.2,6.5,NaN, NaN,NaN,256.5,NaN,1080088098,NaN,NaN,6.0,001696,   NaN,259.5,32.872680,-117.376540,0.36,NaN,NaN,16.753, NaN,NaN,NaN, NaN, NaN
20040324,002846,88116,32.872480,-117.377750,NaN,16.758,33.072,42.451,123.34,0.0, NaN,16.051,16.017, NaN,24.092,   NaN,14.81,1013.06,90.57,14.73,298.0,290.2,6.0,7.2,161.9,161.1,5.2,6.7,NaN, NaN,NaN,258.2,NaN,1080088128,NaN,NaN,6.5,001726,   NaN,260.5,32.872450,-117.377650,0.31,NaN,NaN,16.762, NaN,NaN,NaN, NaN, NaN
20040324,002916,88146,32.872270,-117.378940,NaN,16.765,33.071,42.458,123.02,0.0, NaN,16.064,16.030, NaN,24.089,   NaN,14.86,1013.07,90.98,14.76,297.5,289.8,5.8,7.1,159.7,160.1,5.1,6.7,NaN, NaN,NaN,258.5,NaN,1080088158,NaN,NaN,7.7,001757,   NaN,260.8,32.872250,-117.378820,0.38,NaN,NaN,16.769, NaN,NaN,NaN, NaN, NaN
20040324,002946,88176,32.872060,-117.380110,NaN,16.772,33.073,42.466,125.85,0.0, NaN,16.075,16.040, NaN,24.089,   NaN,14.91,1013.07,90.98,14.77,300.4,293.5,6.4,7.3,164.9,163.4,5.4,6.6,NaN, NaN,NaN,257.5,NaN,1080088188,NaN,NaN,7.8,001786,   NaN,259.1,32.872050,-117.379970,0.34,NaN,NaN,16.776, NaN,NaN,NaN, NaN, NaN
20040324,003016,88206,32.871840,-117.381360,NaN,16.787,33.074,42.481,127.36,0.0, NaN,16.086,16.053, NaN,24.086,   NaN,14.87,1013.09,90.56,14.76,303.6,297.5,7.1,7.6,170.4,166.7,5.8,6.6,NaN, NaN,NaN,259.4,NaN,1080088218,NaN,NaN,7.8,001816,   NaN,261.2,32.871820,-117.381220,0.28,NaN,NaN,16.791, NaN,NaN,NaN, NaN, NaN
20040324,003046,88235,32.871630,-117.382660,NaN,16.800,33.075,42.495,126.48,0.0, NaN,16.100,16.066, NaN,24.084,   NaN,14.88,1013.08,90.61,14.77,303.4,297.4,7.1,7.5,168.6,164.9,5.8,6.6,NaN, NaN,NaN,261.8,NaN,1080088248,NaN,NaN,8.2,001846,   NaN,259.5,32.871610,-117.382540,0.48,NaN,NaN,16.804, NaN,NaN,NaN, NaN, NaN
20040324,003116,88266,32.871390,-117.384020,NaN,16.813,33.076,42.509,126.73,0.0, NaN,16.108,16.071, NaN,24.082,   NaN,14.89,1013.08,90.62,14.78,304.5,297.5,7.2,7.6,168.9,163.8,5.9,6.7,NaN, NaN,NaN,259.6,NaN,1080088278,NaN,NaN,8.1,001876,   NaN,259.3,32.871360,-117.383950,0.43,NaN,NaN,16.817, NaN,NaN,NaN, NaN, NaN
20040324,003146,88296,32.871130,-117.385490,NaN,16.822,33.075,42.516,132.59,0.0, NaN,16.110,16.080, NaN,24.079,   NaN,14.92,1013.08,90.77,14.79,306.5,300.7,7.8,7.9,171.5,166.4,6.2,6.7,NaN, NaN,NaN,255.1,NaN,1080088308,NaN,NaN,9.8,001907,   NaN,259.8,32.871110,-117.385380,0.46,NaN,NaN,16.826, NaN,NaN,NaN, NaN, NaN
20040324,003216,88326,32.870890,-117.386940,NaN,16.832,33.079,42.529,144.52,0.0, NaN,16.122,16.090, NaN,24.079,   NaN,14.91,1013.10,90.69,14.80,311.5,306.0,8.1,8.1,177.6,171.9,6.0,6.5,NaN, NaN,NaN,257.1,NaN,1080088338,NaN,NaN,9.2,001937,   NaN,260.5,32.870870,-117.386820,0.42,NaN,NaN,16.836, NaN,NaN,NaN, NaN, NaN
20040324,003246,88356,32.870660,-117.388360,NaN,16.852,33.078,42.548,152.57,0.0, NaN,16.137,16.103, NaN,24.074,   NaN,14.93,1013.11,90.69,14.81,318.0,312.6,7.8,8.2,182.1,178.6,5.2,6.0,NaN, NaN,NaN,253.8,NaN,1080088368,NaN,NaN,10.2,001966,   NaN,259.0,32.870630,-117.388300,0.78,NaN,NaN,16.856, NaN,NaN,NaN, NaN, NaN
20040324,003316,88386,32.870400,-117.389860,NaN,16.866,33.078,42.561,157.51,0.0, NaN,16.147,16.113, NaN,24.071,   NaN,14.89,1013.10,90.32,14.79,321.8,317.1,7.5,8.2,183.8,182.7,4.7,5.7,NaN, NaN,NaN,266.4,NaN,1080088398,NaN,NaN,7.7,001996,   NaN,259.7,32.870370,-117.389790,0.34,NaN,NaN,16.870, NaN,NaN,NaN, NaN, NaN
20040324,003346,88416,32.870150,-117.391380,NaN,16.877,33.078,42.572,165.49,0.0, NaN,16.158,16.124, NaN,24.068,   NaN,14.97,1013.14,90.86,14.83,322.5,319.0,7.4,8.0,182.9,183.3,4.5,5.3,NaN, NaN,NaN,258.6,NaN,1080088428,NaN,NaN,9.5,002026,   NaN,259.5,32.870130,-117.391260,0.57,NaN,NaN,16.881, NaN,NaN,NaN, NaN, NaN
20040324,003416,88446,32.869900,-117.392920,NaN,16.884,33.079,42.579,175.68,0.0, NaN,16.168,16.134, NaN,24.067,   NaN,14.95,1013.11,90.11,14.82,323.1,320.3,7.2,7.9,181.4,183.1,4.4,5.1,NaN, NaN,NaN,259.9,NaN,1080088458,NaN,NaN,9.2,002056,   NaN,259.1,32.869870,-117.392810,0.53,NaN,NaN,16.888, NaN,NaN,NaN, NaN, NaN
20040324,003446,88476,32.869610,-117.394530,NaN,16.898,33.079,42.592,183.15,0.0, NaN,16.177,16.143, NaN,24.064,   NaN,14.94,1013.11,89.59,14.78,323.6,322.4,7.1,7.7,180.2,183.5,4.3,4.8,NaN, NaN,NaN,255.7,NaN,1080088488,NaN,NaN,9.9,002087,   NaN,259.8,32.869590,-117.394420,0.31,NaN,NaN,16.902, NaN,NaN,NaN, NaN, NaN
20040324,003516,88506,32.869350,-117.396080,NaN,16.915,33.078,42.606,187.59,0.0, NaN,16.188,16.152, NaN,24.059,   NaN,14.96,1013.11,89.23,14.78,327.5,325.6,7.1,7.3,185.4,184.2,3.9,4.2,NaN, NaN,NaN,261.3,NaN,1080088518,NaN,NaN,8.8,002117,   NaN,259.5,32.869330,-117.395960,0.46,NaN,NaN,16.919, NaN,NaN,NaN, NaN, NaN
20040324,003546,88536,32.869090,-117.397620,NaN,16.924,33.078,42.616,190.50,0.0, NaN,16.192,16.157, NaN,24.058,   NaN,14.98,1013.12,88.99,14.81,330.6,328.7,7.1,6.9,189.8,184.6,3.6,3.6,NaN, NaN,NaN,257.3,NaN,1080088548,NaN,NaN,9.8,002147,   NaN,259.7,32.869060,-117.397500,0.36,NaN,NaN,16.928, NaN,NaN,NaN, NaN, NaN
20040324,003616,88565,32.868840,-117.399120,NaN,16.933,33.080,42.626,193.43,0.0, NaN,16.188,16.153, NaN,24.057,   NaN,15.01,1013.12,89.07,14.83,333.9,331.4,7.0,6.6,193.8,185.2,3.3,3.2,NaN, NaN,NaN,258.9,NaN,1080088578,NaN,NaN,9.3,002176,   NaN,259.7,32.868810,-117.399000,0.34,NaN,NaN,16.937, NaN,NaN,NaN, NaN, NaN
20040324,003646,88596,32.868580,-117.400670,NaN,16.937,33.082,42.632,197.28,0.0, NaN,16.180,16.144, NaN,24.057,   NaN,15.06,1013.10,88.80,14.87,337.6,334.5,7.3,7.0,203.3,194.6,3.2,3.3,NaN, NaN,NaN,258.3,NaN,1080088608,NaN,NaN,9.1,002206,   NaN,259.7,32.868550,-117.400550,0.51,NaN,NaN,16.941, NaN,NaN,NaN, NaN, NaN
20040324,003716,88626,32.868300,-117.402200,NaN,16.947,33.082,42.643,201.00,0.0, NaN,16.177,16.142, NaN,24.055,   NaN,15.06,1013.06,88.05,14.87,340.3,338.2,7.8,7.8,213.5,208.8,3.6,3.6,NaN, NaN,NaN,258.4,NaN,1080088638,NaN,NaN,9.2,002236,   NaN,259.1,32.868280,-117.402090,0.35,NaN,NaN,16.951, NaN,NaN,NaN, NaN, NaN
20040324,003746,88656,32.868020,-117.403770,NaN,16.950,33.083,42.647,203.88,0.0, NaN,16.174,16.137, NaN,24.055,   NaN,15.11,1013.10,88.21,14.89,341.3,339.1,8.0,8.1,217.1,213.1,3.6,3.9,NaN, NaN,NaN,255.2,NaN,1080088668,NaN,NaN,11.0,002267,   NaN,259.8,32.868010,-117.403650,0.41,NaN,NaN,16.954, NaN,NaN,NaN, NaN, NaN